When you browse on this site, cookies collect data to enhance your experience and personalize the content and advertising you see.
Visit our Privacy Policy to learn more. By continuing to use the site, you agree to this use of cookies and data.
  • en France
  • Liste des pays
  • À 7 jours
  • Température de l'eau
  • Carte météo
  • Widgets météo
  • user-avatar
    Se connecter

    Météo par heure à Roussé

    Ce jour, 21 Août, Mercredi

    Heure Température Précipitation Vent Pression Humidité
    00:00 +23°C° 0 mm 1 m/s 759 mmHg 47%
    01:00 +22°C° 0 mm 1 m/s 759 mmHg 50%
    02:00 +21°C° 0 mm 1 m/s 759 mmHg 52%
    03:00 +21°C° 0 mm 1 m/s 759 mmHg 54%
    04:00 +18°C° 0 mm 0 m/s 759 mmHg 55%
    05:00 +18°C° 0 mm 0 m/s 759 mmHg 57%
    06:00 +20°C° 0 mm 0 m/s 759 mmHg 50%
    07:00 +25°C° 0 mm 1 m/s 759 mmHg 43%
    08:00 +27°C° 0 mm 1 m/s 759 mmHg 37%
    09:00 +29°C° 0 mm 2 m/s 759 mmHg 33%
    10:00 +32°C° 0 mm 2 m/s 759 mmHg 28%
    11:00 +35°C° 0 mm 3 m/s 758 mmHg 24%
    12:00 +36°C° 0 mm 3 m/s 758 mmHg 23%
    13:00 +37°C° 0 mm 3 m/s 757 mmHg 21%
    14:00 +38°C° 0 mm 3 m/s 757 mmHg 20%
    15:00 +38°C° 0 mm 3 m/s 757 mmHg 20%
    16:00 +38°C° 0 mm 3 m/s 756 mmHg 20%
    17:00 +38°C° 0 mm 3 m/s 756 mmHg 20%
    18:00 +35°C° 0 mm 3 m/s 757 mmHg 23%
    19:00 +32°C° 0 mm 2 m/s 757 mmHg 27%
    20:00 +29°C° 0 mm 2 m/s 757 mmHg 30%
    21:00 +28°C° 0 mm 2 m/s 757 mmHg 32%
    22:00 +27°C° 0 mm 2 m/s 757 mmHg 35%
    23:00 +26°C° 0 mm 1 m/s 757 mmHg 37%

    Demain, 22 Août, Jeudi

    Heure Température Précipitation Vent Pression Humidité
    00:00 +25°C° 0 mm 1 m/s 758 mmHg 41%
    01:00 +24°C° 0 mm 1 m/s 758 mmHg 45%
    02:00 +23°C° 0 mm 1 m/s 758 mmHg 49%
    03:00 +21°C° 0 mm 0 m/s 758 mmHg 50%
    04:00 +21°C° 0 mm 0 m/s 758 mmHg 51%
    05:00 +20°C° 0 mm 0 m/s 757 mmHg 52%
    06:00 +24°C° 0 mm 1 m/s 758 mmHg 48%
    07:00 +27°C° 0 mm 1 m/s 758 mmHg 44%
    08:00 +29°C° 0 mm 2 m/s 759 mmHg 40%
    09:00 +31°C° 0 mm 2 m/s 759 mmHg 36%
    10:00 +34°C° 0 mm 3 m/s 759 mmHg 32%
    11:00 +36°C° 0 mm 4 m/s 758 mmHg 28%
    12:00 +37°C° 0 mm 4 m/s 758 mmHg 25%
    13:00 +38°C° 0 mm 4 m/s 758 mmHg 22%
    14:00 +40°C° 0 mm 5 m/s 758 mmHg 20%
    15:00 +40°C° 0 mm 5 m/s 757 mmHg 21%
    16:00 +39°C° 0 mm 6 m/s 757 mmHg 21%
    17:00 +39°C° 0 mm 6 m/s 757 mmHg 22%
    18:00 +35°C° 0 mm 5 m/s 758 mmHg 26%
    19:00 +33°C° 0 mm 4 m/s 758 mmHg 30%
    20:00 +30°C° 0 mm 3 m/s 759 mmHg 35%
    21:00 +29°C° 0 mm 4 m/s 759 mmHg 38%
    22:00 +28°C° 0 mm 4 m/s 759 mmHg 41%
    23:00 +27°C° 0 mm 4 m/s 759 mmHg 45%

    Après-demain, 23 Août, Vendredi

    Heure Température Précipitation Vent Pression Humidité
    00:00 +26°C° 0 mm 4 m/s 759 mmHg 50%
    01:00 +25°C° 0 mm 4 m/s 759 mmHg 54%
    02:00 +24°C° 0 mm 3 m/s 759 mmHg 59%
    03:00 +24°C° 0 mm 3 m/s 759 mmHg 64%
    04:00 +22°C° 0 mm 3 m/s 760 mmHg 69%
    05:00 +21°C° 0 mm 2 m/s 760 mmHg 74%
    06:00 +23°C° 0 mm 2 m/s 760 mmHg 69%
    07:00 +24°C° 0 mm 3 m/s 760 mmHg 64%
    08:00 +26°C° 0 mm 3 m/s 760 mmHg 59%
    09:00 +28°C° 0 mm 3 m/s 760 mmHg 52%
    10:00 +30°C° 0 mm 3 m/s 760 mmHg 44%
    11:00 +34°C° 0 mm 3 m/s 760 mmHg 37%
    12:00 +35°C° 0 mm 4 m/s 759 mmHg 32%
    13:00 +36°C° 0 mm 4 m/s 759 mmHg 28%
    14:00 +39°C° 0 mm 5 m/s 758 mmHg 24%
    15:00 +39°C° 0 mm 5 m/s 758 mmHg 23%
    16:00 +37°C° 0 mm 5 m/s 758 mmHg 22%
    17:00 +37°C° 0 mm 5 m/s 758 mmHg 22%
    18:00 +35°C° 0 mm 5 m/s 758 mmHg 26%
    19:00 +33°C° 0 mm 4 m/s 758 mmHg 31%
    20:00 +29°C° 0 mm 3 m/s 759 mmHg 35%
    21:00 +28°C° 0 mm 3 m/s 759 mmHg 39%
    22:00 +27°C° 0 mm 2 m/s 759 mmHg 42%
    23:00 +26°C° 0 mm 2 m/s 759 mmHg 45%

    24 Août, Samedi

    Heure Température Précipitation Vent Pression Humidité
    00:00 +26°C° 0 mm 2 m/s 759 mmHg 48%
    01:00 +25°C° 0 mm 3 m/s 759 mmHg 51%
    02:00 +25°C° 0 mm 3 m/s 759 mmHg 54%
    03:00 +24°C° 0 mm 3 m/s 759 mmHg 58%
    04:00 +22°C° 0 mm 3 m/s 759 mmHg 61%
    05:00 +23°C° 0 mm 2 m/s 759 mmHg 65%
    06:00 +24°C° 0 mm 3 m/s 760 mmHg 61%
    07:00 +26°C° 0 mm 3 m/s 760 mmHg 56%
    08:00 +27°C° 0 mm 4 m/s 760 mmHg 52%
    09:00 +30°C° 0 mm 4 m/s 760 mmHg 46%
    10:00 +33°C° 0 mm 4 m/s 760 mmHg 40%
    11:00 +35°C° 0 mm 5 m/s 759 mmHg 34%
    12:00 +36°C° 0 mm 5 m/s 759 mmHg 31%
    13:00 +37°C° 0 mm 5 m/s 758 mmHg 28%
    14:00 +39°C° 0 mm 5 m/s 758 mmHg 25%
    15:00 +39°C° 0 mm 5 m/s 758 mmHg 25%
    16:00 +39°C° 0 mm 5 m/s 757 mmHg 25%
    17:00 +39°C° 0 mm 5 m/s 757 mmHg 25%
    18:00 +35°C° 0 mm 5 m/s 757 mmHg 29%
    19:00 +33°C° 0 mm 4 m/s 757 mmHg 33%
    20:00 +30°C° 0 mm 4 m/s 758 mmHg 37%
    21:00 +29°C° 0 mm 3 m/s 758 mmHg 41%
    22:00 +28°C° 0 mm 3 m/s 758 mmHg 45%
    23:00 +26°C° 0 mm 3 m/s 758 mmHg 49%

    25 Août, Dimanche

    Heure Température Précipitation Vent Pression Humidité
    00:00 +26°C° 0 mm 2 m/s 758 mmHg 53%
    01:00 +25°C° 0 mm 1 m/s 758 mmHg 57%
    02:00 +24°C° 0 mm 1 m/s 758 mmHg 61%
    03:00 +23°C° 0 mm 1 m/s 758 mmHg 63%
    04:00 +23°C° 0 mm 1 m/s 758 mmHg 65%
    05:00 +21°C° 0 mm 2 m/s 758 mmHg 68%
    06:00 +24°C° 0 mm 2 m/s 758 mmHg 60%
    07:00 +26°C° 0 mm 2 m/s 758 mmHg 53%
    08:00 +28°C° 0 mm 2 m/s 758 mmHg 45%
    09:00 +30°C° 0 mm 3 m/s 758 mmHg 39%
    10:00 +34°C° 0 mm 3 m/s 758 mmHg 34%
    11:00 +36°C° 0 mm 4 m/s 758 mmHg 28%
    12:00 +37°C° 0 mm 4 m/s 757 mmHg 25%
    13:00 +38°C° 0 mm 4 m/s 757 mmHg 22%
    14:00 +41°C° 0 mm 4 m/s 757 mmHg 19%
    15:00 +40°C° 0 mm 4 m/s 756 mmHg 21%
    16:00 +38°C° 0 mm 4 m/s 756 mmHg 22%
    17:00 +37°C° 0 mm 5 m/s 756 mmHg 24%
    18:00 +35°C° 0.1 mm 5 m/s 756 mmHg 31%
    19:00 +33°C° 0.1 mm 5 m/s 757 mmHg 38%
    20:00 +29°C° 0.1 mm 5 m/s 757 mmHg 46%
    21:00 +28°C° 0 mm 4 m/s 757 mmHg 49%
    22:00 +27°C° 0 mm 4 m/s 758 mmHg 53%
    23:00 +25°C° 0 mm 3 m/s 758 mmHg 56%

    26 Août, Lundi

    Heure Température Précipitation Vent Pression Humidité
    00:00 +25°C° 0 mm 3 m/s 758 mmHg 58%
    01:00 +24°C° 0 mm 2 m/s 758 mmHg 60%
    02:00 +23°C° 0 mm 2 m/s 758 mmHg 62%
    03:00 +23°C° 0 mm 2 m/s 758 mmHg 64%
    04:00 +21°C° 0 mm 2 m/s 758 mmHg 65%
    05:00 +21°C° 0 mm 2 m/s 758 mmHg 67%
    06:00 +24°C° 0 mm 2 m/s 758 mmHg 59%
    07:00 +26°C° 0 mm 2 m/s 758 mmHg 52%
    08:00 +28°C° 0 mm 3 m/s 758 mmHg 45%
    09:00 +30°C° 0 mm 3 m/s 758 mmHg 38%
    10:00 +33°C° 0 mm 4 m/s 758 mmHg 31%
    11:00 +36°C° 0 mm 5 m/s 758 mmHg 24%
    12:00 +37°C° 0 mm 4 m/s 758 mmHg 22%
    13:00 +37°C° 0 mm 4 m/s 757 mmHg 20%
    14:00 +38°C° 0 mm 4 m/s 757 mmHg 17%
    15:00 +38°C° 0 mm 4 m/s 756 mmHg 17%
    16:00 +38°C° 0 mm 4 m/s 756 mmHg 17%
    17:00 +38°C° 0 mm 4 m/s 756 mmHg 17%
    18:00 +35°C° 0 mm 4 m/s 756 mmHg 21%
    19:00 +33°C° 0 mm 4 m/s 756 mmHg 24%
    20:00 +29°C° 0 mm 4 m/s 757 mmHg 28%
    21:00 +28°C° 0 mm 3 m/s 757 mmHg 38%
    22:00 +27°C° 0 mm 3 m/s 757 mmHg 48%
    23:00 +25°C° 0 mm 3 m/s 758 mmHg 58%
    Voir plus